Time,TemperatureF,DewpointF,PressureIn,WindDirection,WindDirectionDegrees,WindSpeedMPH,WindSpeedGustMPH,Humidity,HourlyPrecipIn,Conditions,Clouds,dailyrainin,SolarRadiationWatts/m^2,SoftwareType,DateUTC
2013-08-02 00:02:00,67.0,58.0,-100.00,NNW,340,0.0,0.0,73,0.00,,,0.00,0.000000,,2013-08-02 07:02:00,
2013-08-02 00:33:00,66.0,57.0,-100.00,NNW,342,0.0,0.0,74,0.00,,,0.00,0.000000,,2013-08-02 07:33:00,
2013-08-02 00:44:00,66.0,57.0,-100.00,NNW,342,0.0,0.0,74,0.00,,,0.00,0.000000,,2013-08-02 07:44:00,
2013-08-02 00:53:00,66.0,57.0,-100.00,NNW,342,0.0,0.0,74,0.00,,,0.00,0.000000,,2013-08-02 07:53:00,
2013-08-02 01:02:00,66.0,57.0,-100.00,NNW,342,0.0,0.0,74,0.00,,,0.00,0.000000,,2013-08-02 08:02:00,
2013-08-02 01:22:00,67.0,58.0,-100.00,NNW,347,0.0,0.0,73,0.00,,,0.00,0.000000,,2013-08-02 08:22:00,
2013-08-02 01:33:00,67.0,58.0,-100.00,NNW,347,0.0,0.0,73,0.00,,,0.00,0.000000,,2013-08-02 08:33:00,
2013-08-02 01:43:00,67.0,58.0,-100.00,NNW,347,0.0,0.0,73,0.00,,,0.00,0.000000,,2013-08-02 08:43:00,
2013-08-02 01:54:00,67.0,58.0,-100.00,NNW,347,0.0,0.0,73,0.00,,,0.00,0.000000,,2013-08-02 08:54:00,
2013-08-02 02:01:00,67.0,58.0,-100.00,NNW,347,0.0,0.0,73,0.00,,,0.00,0.000000,,2013-08-02 09:01:00,
2013-08-02 02:33:00,66.0,57.0,-100.00,NNW,340,0.0,0.0,72,0.00,,,0.00,0.000000,,2013-08-02 09:33:00,
2013-08-02 02:43:00,66.0,57.0,-100.00,NNW,340,0.0,0.0,72,0.00,,,0.00,0.000000,,2013-08-02 09:43:00,
2013-08-02 02:53:00,66.0,57.0,-100.00,NNW,340,0.0,0.0,72,0.00,,,0.00,0.000000,,2013-08-02 09:53:00,
2013-08-02 03:02:00,66.0,57.0,-100.00,NNW,340,0.0,0.0,72,0.00,,,0.00,0.000000,,2013-08-02 10:02:00,
2013-08-02 03:23:00,64.0,55.0,-100.00,NNW,342,0.0,0.0,72,0.00,,,0.00,0.000000,,2013-08-02 10:23:00,
2013-08-02 03:33:00,64.0,55.0,-100.00,NNW,342,0.0,0.0,72,0.00,,,0.00,0.000000,,2013-08-02 10:33:00,
2013-08-02 03:43:00,64.0,55.0,-100.00,NNW,342,0.0,0.0,72,0.00,,,0.00,0.000000,,2013-08-02 10:43:00,
2013-08-02 03:52:00,64.0,55.0,-100.00,NNW,342,0.0,0.0,72,0.00,,,0.00,0.000000,,2013-08-02 10:52:00,
2013-08-02 04:02:00,64.0,55.0,-100.00,NNW,342,0.0,0.0,72,0.00,,,0.00,0.000000,,2013-08-02 11:02:00,
2013-08-02 04:33:00,65.0,56.0,-100.00,North,349,0.0,0.0,72,0.00,,,0.00,0.000000,,2013-08-02 11:33:00,
2013-08-02 04:43:00,65.0,56.0,-100.00,North,349,0.0,0.0,72,0.00,,,0.00,0.000000,,2013-08-02 11:43:00,
2013-08-02 04:52:00,65.0,56.0,-100.00,North,349,0.0,0.0,72,0.00,,,0.00,0.000000,,2013-08-02 11:52:00,
2013-08-02 05:02:00,65.0,56.0,-100.00,North,349,0.0,0.0,72,0.00,,,0.00,0.000000,,2013-08-02 12:02:00,
2013-08-02 05:33:00,64.0,55.0,-100.00,NNW,341,0.0,0.0,72,0.00,,,0.00,0.000000,,2013-08-02 12:33:00,
2013-08-02 05:43:00,64.0,55.0,-100.00,NNW,341,0.0,0.0,72,0.00,,,0.00,0.000000,,2013-08-02 12:43:00,
2013-08-02 05:52:00,64.0,55.0,-100.00,NNW,341,0.0,0.0,72,0.00,,,0.00,0.000000,,2013-08-02 12:52:00,
2013-08-02 06:02:00,64.0,55.0,-100.00,NNW,341,0.0,0.0,72,0.00,,,0.00,0.000000,,2013-08-02 13:02:00,
2013-08-02 06:22:00,64.0,54.0,-100.00,North,351,0.0,0.0,71,0.00,,,0.00,3.000000,,2013-08-02 13:22:00,
2013-08-02 06:33:00,64.0,54.0,-100.00,North,351,0.0,0.0,71,0.00,,,0.00,3.000000,,2013-08-02 13:33:00,
2013-08-02 06:43:00,64.0,54.0,-100.00,North,351,0.0,0.0,71,0.00,,,0.00,3.000000,,2013-08-02 13:43:00,
2013-08-02 06:52:00,64.0,54.0,-100.00,North,351,0.0,0.0,71,0.00,,,0.00,3.000000,,2013-08-02 13:52:00,
2013-08-02 07:02:00,64.0,54.0,-100.00,North,351,0.0,0.0,71,0.00,,,0.00,3.000000,,2013-08-02 14:02:00,
2013-08-02 07:03:00,65.0,55.0,-100.00,NNW,340,0.0,0.0,69,0.00,,,0.00,27.000000,,2013-08-02 14:03:00,
2013-08-02 07:32:00,65.0,55.0,-100.00,NNW,340,0.0,0.0,69,0.00,,,0.00,27.000000,,2013-08-02 14:32:00,
2013-08-02 07:43:00,65.0,55.0,-100.00,NNW,340,0.0,0.0,69,0.00,,,0.00,27.000000,,2013-08-02 14:43:00,
2013-08-02 07:53:00,65.0,55.0,-100.00,NNW,340,0.0,0.0,69,0.00,,,0.00,27.000000,,2013-08-02 14:53:00,
2013-08-02 08:32:00,71.0,57.0,-100.00,NNW,341,0.0,0.0,61,-99.99,,,0.00,151.000000,,2013-08-02 15:32:00,
2013-08-02 08:43:00,71.0,57.0,-100.00,NNW,341,0.0,0.0,61,-99.99,,,0.00,151.000000,,2013-08-02 15:43:00,
2013-08-02 08:52:00,71.0,57.0,-100.00,NNW,341,0.0,0.0,61,-99.99,,,0.00,151.000000,,2013-08-02 15:52:00,
2013-08-02 09:01:00,71.0,57.0,-100.00,NNW,341,0.0,0.0,61,-99.99,,,0.00,151.000000,,2013-08-02 16:01:00,
2013-08-02 09:32:00,80.0,57.0,-100.00,North,350,0.0,0.0,45,-99.99,,,-99.99,409.000000,,2013-08-02 16:32:00,
2013-08-02 09:43:00,80.0,57.0,-100.00,North,350,0.0,0.0,45,-99.99,,,-99.99,409.000000,,2013-08-02 16:43:00,
2013-08-02 09:52:00,80.0,57.0,-100.00,North,350,0.0,0.0,45,-99.99,,,-99.99,409.000000,,2013-08-02 16:52:00,
2013-08-02 10:02:00,80.0,57.0,-100.00,North,350,0.0,0.0,45,-99.99,,,-99.99,409.000000,,2013-08-02 17:02:00,
2013-08-02 10:35:00,87.0,57.0,-100.00,West,273,0.0,0.0,36,0.00,,,0.00,720.000000,,2013-08-02 17:35:00,
2013-08-02 10:43:00,87.0,57.0,-100.00,West,273,0.0,0.0,36,0.00,,,0.00,720.000000,,2013-08-02 17:43:00,
2013-08-02 10:52:00,87.0,57.0,-100.00,West,273,0.0,0.0,36,0.00,,,0.00,720.000000,,2013-08-02 17:52:00,
2013-08-02 11:02:00,87.0,57.0,-100.00,West,273,0.0,0.0,36,0.00,,,0.00,720.000000,,2013-08-02 18:02:00,
2013-08-02 11:32:00,86.0,56.0,-100.00,SSE,148,0.0,0.0,36,0.00,,,0.00,685.000000,,2013-08-02 18:32:00,
2013-08-02 11:43:00,86.0,56.0,-100.00,SSE,148,0.0,0.0,36,0.00,,,0.00,685.000000,,2013-08-02 18:43:00,
2013-08-02 11:52:00,86.0,56.0,-100.00,SSE,148,0.0,0.0,36,0.00,,,0.00,685.000000,,2013-08-02 18:52:00,
2013-08-02 12:02:00,86.0,56.0,-100.00,SSE,148,0.0,0.0,36,0.00,,,0.00,685.000000,,2013-08-02 19:02:00,
2013-08-02 12:32:00,89.0,57.0,-100.00,SSE,152,0.0,0.0,34,0.00,,,0.00,701.000000,,2013-08-02 19:32:00,
2013-08-02 12:43:00,89.0,57.0,-100.00,SSE,152,0.0,0.0,34,0.00,,,0.00,701.000000,,2013-08-02 19:43:00,
2013-08-02 12:52:00,89.0,57.0,-100.00,SSE,152,0.0,0.0,34,0.00,,,0.00,701.000000,,2013-08-02 19:52:00,
2013-08-02 13:02:00,89.0,57.0,-100.00,SSE,152,0.0,0.0,34,0.00,,,0.00,701.000000,,2013-08-02 20:02:00,
2013-08-02 13:32:00,86.0,52.0,-100.00,ENE,71,0.0,0.0,31,0.00,,,0.00,734.000000,,2013-08-02 20:32:00,
2013-08-02 13:43:00,86.0,52.0,-100.00,ENE,71,0.0,0.0,31,0.00,,,0.00,734.000000,,2013-08-02 20:43:00,
2013-08-02 13:52:00,86.0,52.0,-100.00,ENE,71,0.0,0.0,31,0.00,,,0.00,734.000000,,2013-08-02 20:52:00,
2013-08-02 14:02:00,86.0,52.0,-100.00,ENE,71,0.0,0.0,31,0.00,,,0.00,734.000000,,2013-08-02 21:02:00,
2013-08-02 14:32:00,92.0,51.0,-100.00,NW,306,0.0,0.0,25,0.00,,,0.00,805.000000,,2013-08-02 21:32:00,
2013-08-02 14:43:00,92.0,51.0,-100.00,NW,306,0.0,0.0,25,0.00,,,0.00,805.000000,,2013-08-02 21:43:00,
2013-08-02 14:53:00,92.0,51.0,-100.00,NW,306,0.0,0.0,25,0.00,,,0.00,805.000000,,2013-08-02 21:53:00,
2013-08-02 15:01:00,92.0,51.0,-100.00,NW,306,0.0,0.0,25,0.00,,,0.00,805.000000,,2013-08-02 22:01:00,
2013-08-02 15:32:00,94.0,53.0,-100.00,WSW,240,0.0,0.0,25,0.00,,,0.00,747.000000,,2013-08-02 22:32:00,
2013-08-02 15:43:00,94.0,53.0,-100.00,WSW,240,0.0,0.0,25,0.00,,,0.00,747.000000,,2013-08-02 22:43:00,
2013-08-02 15:52:00,94.0,53.0,-100.00,WSW,240,0.0,0.0,25,0.00,,,0.00,747.000000,,2013-08-02 22:52:00,
2013-08-02 16:02:00,94.0,53.0,-100.00,WSW,240,0.0,0.0,25,0.00,,,0.00,747.000000,,2013-08-02 23:02:00,
2013-08-02 16:32:00,92.0,50.0,-100.00,NE,39,0.0,0.0,24,0.00,,,0.00,645.000000,,2013-08-02 23:32:00,
2013-08-02 16:44:00,92.0,50.0,-100.00,NE,39,0.0,0.0,24,0.00,,,0.00,645.000000,,2013-08-02 23:44:00,
2013-08-02 16:53:00,92.0,50.0,-100.00,NE,39,0.0,0.0,24,0.00,,,0.00,645.000000,,2013-08-02 23:53:00,
2013-08-02 17:02:00,92.0,50.0,-100.00,NE,39,0.0,0.0,24,0.00,,,0.00,645.000000,,2013-08-03 00:02:00,
2013-08-02 17:33:00,88.0,49.0,-100.00,WSW,241,0.0,0.0,26,0.00,,,0.00,231.000000,,2013-08-03 00:33:00,
2013-08-02 17:43:00,88.0,49.0,-100.00,WSW,241,0.0,0.0,26,0.00,,,0.00,231.000000,,2013-08-03 00:43:00,
2013-08-02 17:52:00,88.0,49.0,-100.00,WSW,241,0.0,0.0,26,0.00,,,0.00,231.000000,,2013-08-03 00:52:00,
2013-08-02 18:02:00,88.0,49.0,-100.00,WSW,241,0.0,0.0,26,0.00,,,0.00,231.000000,,2013-08-03 01:02:00,
2013-08-02 18:33:00,83.0,51.0,-100.00,SSE,162,0.0,0.0,33,0.00,,,0.00,184.000000,,2013-08-03 01:33:00,
2013-08-02 18:42:00,83.0,51.0,-100.00,SSE,162,0.0,0.0,33,0.00,,,0.00,184.000000,,2013-08-03 01:42:00,
2013-08-02 18:53:00,83.0,51.0,-100.00,SSE,162,0.0,0.0,33,0.00,,,0.00,184.000000,,2013-08-03 01:53:00,
2013-08-02 19:02:00,83.0,51.0,-100.00,SSE,162,0.0,0.0,33,0.00,,,0.00,184.000000,,2013-08-03 02:02:00,
2013-08-02 19:32:00,79.0,51.0,-100.00,NNW,328,0.0,0.0,38,0.00,,,0.00,71.000000,,2013-08-03 02:32:00,
2013-08-02 19:43:00,79.0,51.0,-100.00,NNW,328,0.0,0.0,38,0.00,,,0.00,71.000000,,2013-08-03 02:43:00,
2013-08-02 19:52:00,79.0,51.0,-100.00,NNW,328,0.0,0.0,38,0.00,,,0.00,71.000000,,2013-08-03 02:52:00,
2013-08-02 20:01:00,79.0,51.0,-100.00,NNW,328,0.0,0.0,38,0.00,,,0.00,71.000000,,2013-08-03 03:01:00,
2013-08-02 20:32:00,76.0,53.0,-100.00,SSE,156,0.0,0.0,45,0.00,,,0.00,9.000000,,2013-08-03 03:32:00,
2013-08-02 20:43:00,76.0,53.0,-100.00,SSE,156,0.0,0.0,45,0.00,,,0.00,9.000000,,2013-08-03 03:43:00,
2013-08-02 20:53:00,76.0,53.0,-100.00,SSE,156,0.0,0.0,45,0.00,,,0.00,9.000000,,2013-08-03 03:53:00,
2013-08-02 21:02:00,76.0,53.0,-100.00,SSE,156,0.0,0.0,45,0.00,,,0.00,9.000000,,2013-08-03 04:02:00,
2013-08-02 21:32:00,74.0,52.0,-100.00,North,2,0.0,0.0,46,0.00,,,0.00,0.000000,,2013-08-03 04:32:00,
2013-08-02 21:43:00,74.0,52.0,-100.00,North,2,0.0,0.0,46,0.00,,,0.00,0.000000,,2013-08-03 04:43:00,
2013-08-02 21:53:00,74.0,52.0,-100.00,North,2,0.0,0.0,46,0.00,,,0.00,0.000000,,2013-08-03 04:53:00,
2013-08-02 22:02:00,74.0,52.0,-100.00,North,2,0.0,0.0,46,0.00,,,0.00,0.000000,,2013-08-03 05:02:00,
2013-08-02 22:32:00,72.0,52.0,-100.00,North,352,0.0,0.0,50,0.00,,,0.00,0.000000,,2013-08-03 05:32:00,
2013-08-02 22:42:00,72.0,52.0,-100.00,North,352,0.0,0.0,50,0.00,,,0.00,0.000000,,2013-08-03 05:42:00,
2013-08-02 22:52:00,72.0,52.0,-100.00,North,352,0.0,0.0,50,0.00,,,0.00,0.000000,,2013-08-03 05:52:00,
2013-08-02 23:02:00,72.0,52.0,-100.00,North,352,0.0,0.0,50,0.00,,,0.00,0.000000,,2013-08-03 06:02:00,
2013-08-02 23:33:00,69.0,51.0,-100.00,NNW,347,0.0,0.0,52,0.00,,,0.00,0.000000,,2013-08-03 06:33:00,
2013-08-02 23:42:00,69.0,51.0,-100.00,NNW,347,0.0,0.0,52,0.00,,,0.00,0.000000,,2013-08-03 06:42:00,
2013-08-02 23:52:00,69.0,51.0,-100.00,NNW,347,0.0,0.0,52,0.00,,,0.00,0.000000,,2013-08-03 06:52:00,